N4FLB Weather Reports


Display with metric or nautical units.
time (UTC)temp
F
wind
direction
speed
MPH
gust
MPH
rain 1hr
in
rain 24hr
in
rain mn
in
humidity
%
barometer
mb
20260505181804 78 183 4.0 11.0 0.00 0.00 0.00 58 1016.0
20260505180904 77 157 6.0 12.0 0.00 0.00 0.00 57 1016.2
20260505180004 76 163 5.0 14.0 0.00 0.00 0.00 57 1016.4
20260505175425 76 165 4.0 9.0 0.00 0.00 0.00 59 1016.4
20260505174504 75 156 6.0 12.0 0.00 0.00 0.00 59 1016.4
20260505173625 75 159 4.0 12.0 0.00 0.00 0.00 60 1016.7
20260505172704 75 154 3.0 9.0 0.00 0.00 0.00 62 1016.8
20260505171804 74 167 4.0 11.0 0.00 0.00 0.00 62 1016.9
20260505170904 74 223 4.0 9.0 0.00 0.00 0.00 61 1016.9
20260505170004 74 168 4.0 10.0 0.00 0.00 0.00 61 1016.9
20260505165404 74 209 3.0 8.0 0.00 0.00 0.00 62 1016.9
20260505164504 74 201 4.0 9.0 0.00 0.00 0.00 61 1017.0
20260505163604 74 158 4.0 11.0 0.00 0.00 0.00 60 1017.0
20260505162704 73 179 5.0 12.0 0.00 0.00 0.00 62 1017.1
20260505161804 73 185 4.0 11.0 0.00 0.00 0.00 62 1017.2
20260505160904 73 215 4.0 10.0 0.00 0.00 0.00 62 1017.3
20260505152704 71 198 4.0 11.0 0.00 0.00 0.00 66 1017.8
20260505151804 70 183 4.0 9.0 0.00 0.00 0.00 67 1018.1
20260505150903 70 190 4.0 9.0 0.00 0.00 0.00 70 1017.7
20260505124526 58 153 3.0 5.0 0.00 0.00 0.00 88 1016.7
20260505123605 58 150 2.0 4.0 0.00 0.00 0.00 89 1016.8
20260505122705 58 124 2.0 3.0 0.00 0.00 0.00 91 1016.7
20260505121806 56 161 0.0 2.0 0.00 0.00 0.00 93 1016.7
20260505120905 56 159 0.0 2.0 0.00 0.00 0.00 94 1016.6
20260505120026 55 154 1.0 2.0 0.00 0.00 0.00 95 1016.2
20260505115405 54 146 1.0 2.0 0.00 0.00 0.00 96 1016.1
20260505114505 54 89 0.0 1.0 0.00 0.00 0.00 98 1016.0
20260505113604 53 0 0.0 0.0 0.00 0.00 0.00 98 1015.7
20260505112705 52 0 0.0 0.0 0.00 0.00 0.00 98 1015.5
20260505111805 52 0 0.0 0.0 0.00 0.00 0.00 97 1015.5
20260505110904 52 0 0.0 0.0 0.00 0.00 0.00 97 1015.2
20260505101804 53 115 0.0 2.0 0.00 0.00 0.00 96 1015.3
20260505100904 54 0 0.0 0.0 0.00 0.00 0.00 96 1015.2
20260505100004 54 0 0.0 0.0 0.00 0.00 0.00 96 1015.4
20260505095425 54 0 0.0 0.0 0.00 0.00 0.00 96 1015.4
20260505094504 54 0 0.0 0.0 0.00 0.00 0.00 95 1015.4
20260505093604 54 0 0.0 0.0 0.00 0.00 0.00 96 1015.7
20260505092704 54 0 0.0 0.0 0.00 0.00 0.00 94 1015.6
20260505091804 54 0 0.0 0.0 0.00 0.00 0.00 94 1015.9
20260505090904 54 0 0.0 0.0 0.00 0.00 0.00 93 1015.8
20260505090004 54 0 0.0 0.0 0.00 0.00 0.00 93 1015.8
20260505085404 54 0 0.0 0.0 0.00 0.00 0.00 93 1015.9
20260505084504 54 0 0.0 0.0 0.00 0.00 0.00 92 1015.8
20260505083604 54 0 0.0 0.0 0.00 0.00 0.00 91 1015.9
20260505082704 55 0 0.0 0.0 0.00 0.00 0.00 91 1016.0
20260505081804 55 0 0.0 0.0 0.00 0.00 0.00 91 1016.1
20260505080904 55 0 0.0 0.0 0.00 0.00 0.00 90 1015.8
20260505080004 55 0 0.0 0.0 0.00 0.00 0.00 90 1016.0
20260505075404 56 0 0.0 0.0 0.00 0.00 0.00 89 1015.9
20260505074503 56 0 0.0 0.0 0.00 0.00 0.00 89 1015.8
20260505073604 56 0 0.0 0.0 0.00 0.00 0.00 88 1015.9
20260505072704 56 0 0.0 0.0 0.00 0.00 0.00 88 1015.9
20260505071804 57 0 0.0 0.0 0.00 0.00 0.00 86 1015.9
20260505070904 57 0 0.0 0.0 0.00 0.00 0.00 86 1016.0
20260505070025 57 0 0.0 0.0 0.00 0.00 0.00 86 1016.0
20260505065404 57 0 0.0 0.0 0.00 0.00 0.00 86 1016.0
20260505064504 58 0 0.0 0.0 0.00 0.00 0.00 86 1016.0
20260505063604 58 0 0.0 0.0 0.00 0.00 0.00 86 1016.1
20260505062704 57 0 0.0 0.0 0.00 0.00 0.00 86 1016.0
20260505061803 58 0 0.0 0.0 0.00 0.00 0.00 85 1016.2
20260505060904 58 0 0.0 0.0 0.00 0.00 0.00 85 1016.3
20260505060004 59 0 0.0 0.0 0.00 0.00 0.00 84 1016.3
20260505055403 59 0 0.0 0.0 0.00 0.00 0.00 83 1016.2
20260505054524 59 0 0.0 0.0 0.00 0.00 0.00 83 1016.1
20260505053604 60 0 0.0 0.0 0.00 0.00 0.00 81 1016.1
20260505052703 60 0 0.0 0.0 0.00 0.00 0.00 79 1016.1
20260505051803 61 168 0.0 1.0 0.00 0.00 0.00 79 1016.1
20260505050903 61 168 0.0 1.0 0.00 0.00 0.00 77 1016.0
20260505040903 59 205 0.0 2.0 0.00 0.00 0.00 85 1015.8
20260505040004 59 216 1.0 3.0 0.00 0.00 0.00 85 1015.8
20260505035403 60 244 0.0 2.0 0.00 0.00 0.00 85 1015.8
20260505034505 60 288 1.0 2.0 0.00 0.00 0.00 84 1015.7
20260505033605 60 283 1.0 3.0 0.00 0.00 0.00 83 1015.5
20260505032726 60 0 0.0 0.0 0.00 0.00 0.00 81 1015.5
20260505031805 61 0 0.0 0.0 0.00 0.00 0.00 79 1015.5
20260505030905 61 230 0.0 3.0 0.00 0.00 0.00 78 1015.4
20260505030005 62 0 0.0 0.0 0.00 0.00 0.00 78 1015.5
20260505025405 62 0 0.0 0.0 0.00 0.00 0.00 76 1015.6
20260505024505 62 165 0.0 1.0 0.00 0.00 0.00 76 1015.5
20260505023605 62 165 0.0 2.0 0.00 0.00 0.00 75 1015.6
20260505022726 63 0 0.0 0.0 0.00 0.00 0.00 74 1015.4
20260505021805 64 0 0.0 0.0 0.00 0.00 0.00 72 1015.3
20260505020905 64 0 0.0 0.0 0.00 0.00 0.00 71 1015.3
20260505020005 65 0 0.0 0.0 0.00 0.00 0.00 68 1015.2
20260505015405 66 0 0.0 0.0 0.00 0.00 0.00 66 1015.2
20260505014504 66 165 0.0 1.0 0.00 0.00 0.00 65 1015.0
20260505013626 67 165 0.0 1.0 0.00 0.00 0.00 63 1014.9
20260505012704 68 0 0.0 0.0 0.00 0.00 0.00 63 1014.8
20260505011805 69 0 0.0 0.0 0.00 0.00 0.00 62 1015.1
20260505010904 70 0 0.0 0.0 0.00 0.00 0.00 60 1015.1
20260505010005 71 0 0.0 0.0 0.00 0.00 0.00 58 1015.1
20260505005404 72 0 0.0 0.0 0.00 0.00 0.00 57 1015.0
20260505004504 72 165 0.0 1.0 0.00 0.00 0.00 56 1014.9
20260505003604 73 0 0.0 0.0 0.00 0.00 0.00 54 1014.9
20260505002725 74 164 0.0 1.0 0.00 0.00 0.00 51 1015.0
20260505001804 75 185 0.0 3.0 0.00 0.00 0.00 48 1014.9
20260505000904 76 191 0.0 3.0 0.00 0.00 0.00 48 1014.8
20260505000004 77 177 0.0 2.0 0.00 0.00 0.00 47 1014.8
20260504235404 77 172 1.0 4.0 0.00 0.00 0.00 46 1014.8
20260504234504 77 181 2.0 5.0 0.00 0.00 0.00 45 1015.0
20260504233604 78 183 2.0 5.0 0.00 0.00 0.00 44 1014.9
20260504232704 78 184 2.0 6.0 0.00 0.00 0.00 45 1015.0
20260504231804 78 196 2.0 5.0 0.00 0.00 0.00 43 1015.0
20260504230904 79 198 2.0 7.0 0.00 0.00 0.00 42 1015.1
20260504230004 79 189 3.0 9.0 0.00 0.00 0.00 41 1015.1
20260504225404 79 190 3.0 9.0 0.00 0.00 0.00 40 1015.1
20260504224504 79 197 4.0 9.0 0.00 0.00 0.00 40 1015.2
20260504223625 79 197 3.0 7.0 0.00 0.00 0.00 42 1015.2
20260504222704 80 214 3.0 9.0 0.00 0.00 0.00 39 1015.3
20260504221804 79 210 3.0 9.0 0.00 0.00 0.00 41 1015.3
20260504220904 80 174 3.0 10.0 0.00 0.00 0.00 40 1015.3
20260504220004 80 186 3.0 7.0 0.00 0.00 0.00 41 1015.3
20260504215404 80 182 3.0 9.0 0.00 0.00 0.00 41 1015.3
20260504214504 80 171 3.0 7.0 0.00 0.00 0.00 41 1015.2
20260504213604 80 198 2.0 6.0 0.00 0.00 0.00 40 1015.4
20260504212704 80 184 4.0 8.0 0.00 0.00 0.00 39 1015.3
20260504211804 80 183 4.0 8.0 0.00 0.00 0.00 38 1015.4
20260504210925 80 170 4.0 11.0 0.00 0.00 0.00 40 1015.4
20260504210004 80 173 3.0 10.0 0.00 0.00 0.00 41 1015.6
20260504205404 80 225 3.0 10.0 0.00 0.00 0.00 39 1015.7
20260504204504 79 191 4.0 10.0 0.00 0.00 0.00 39 1015.7
20260504203625 80 178 4.0 10.0 0.00 0.00 0.00 38 1015.8
20260504202704 79 167 4.0 9.0 0.00 0.00 0.00 42 1015.8
20260504201803 79 201 3.0 9.0 0.00 0.00 0.00 40 1016.1
20260504200903 79 192 3.0 10.0 0.00 0.00 0.00 39 1016.2
20260504200004 79 178 4.0 12.0 0.00 0.00 0.00 41 1016.4
20260504195403 79 191 4.0 12.0 0.00 0.00 0.00 41 1016.5
20260504194503 78 164 4.0 9.0 0.00 0.00 0.00 38 1016.5
20260504193624 78 211 3.0 7.0 0.00 0.00 0.00 41 1016.7
20260504192703 78 156 4.0 11.0 0.00 0.00 0.00 41 1016.7
20260504191803 78 151 4.0 10.0 0.00 0.00 0.00 40 1016.8
20260504190903 78 148 3.0 7.0 0.00 0.00 0.00 42 1017.0
20260504190003 77 162 3.0 10.0 0.00 0.00 0.00 45 1017.1
20260504185403 77 144 3.0 10.0 0.00 0.00 0.00 43 1017.2
20260504184505 77 150 3.0 8.0 0.00 0.00 0.00 43 1017.2
20260504183605 77 173 3.0 8.0 0.00 0.00 0.00 46 1017.3
20260504182726 77 161 3.0 9.0 0.00 0.00 0.00 47 1017.5